QPF
0.01 0.02 0.02 0.03 0.04 0.05 0.06 0.06 0.07 0.07 0.05 0.04 0.07 0.09 0.10 0.12 0.17 0.22 0.19 0.18 0.15 0.11 0.07 0.04 0.02 0.02 0.03 0.04 0.04 0.05 0.04 0.04 0.04 0.03 0.03 0.03 0.03 0.01
0.02 0.03 0.03 0.03 0.04 0.06 0.05 0.05 0.06 0.06 0.05 0.03 0.04 0.08 0.14 0.15 0.16 0.18 0.20 0.22 0.19 0.14 0.12 0.08 0.04 0.03 0.02 0.02 0.03 0.03 0.03 0.03 0.03 0.03 0.02 0.02 0.02 0.01
0.02 0.03 0.03 0.04 0.07 0.08 0.07 0.07 0.06 0.06 0.04 0.03 0.03 0.04 0.09 0.15 0.18 0.19 0.21 0.23 0.20 0.16 0.12 0.10 0.07 0.05 0.04 0.04 0.03 0.02 0.02 0.02 0.02 0.02 0.02 0.02 0.01 0.01
0.01 0.02 0.03 0.03 0.05 0.08 0.08 0.07 0.06 0.06 0.05 0.03 0.04 0.03 0.04 0.09 0.15 0.20 0.22 0.21 0.21 0.19 0.14 0.11 0.09 0.06 0.04 0.04 0.03 0.02 0.02 0.01 0.01 0.01 0.01 0.02 0.01 0.01
0.01 0.01 0.02 0.03 0.03 0.04 0.05 0.05 0.05 0.06 0.07 0.04 0.03 0.03 0.04 0.05 0.09 0.16 0.20 0.21 0.19 0.19 0.17 0.13 0.10 0.08 0.06 0.04 0.03 0.02 0.02 0.02 0.02 0.02 0.02 0.02 0.02 0.01
0.01 0.01 0.02 0.02 0.03 0.03 0.04 0.05 0.05 0.07 0.07 0.05 0.03 0.04 0.05 0.05 0.06 0.08 0.13 0.17 0.19 0.20 0.18 0.16 0.13 0.10 0.08 0.05 0.03 0.02 0.02 0.02 0.02 0.02 0.02 0.02 0.01 0.01
0.00 0.01 0.01 0.01 0.02 0.03 0.03 0.04 0.05 0.06 0.07 0.06 0.04 0.04 0.04 0.05 0.05 0.04 0.06 0.11 0.18 0.21 0.21 0.18 0.15 0.11 0.08 0.07 0.05 0.04 0.03 0.03 0.03 0.03 0.03 0.03 0.02 0.02
0.00 0.00 0.01 0.01 0.02 0.02 0.03 0.04 0.05 0.05 0.05 0.05 0.05 0.04 0.04 0.05 0.07 0.07 0.07 0.08 0.11 0.14 0.17 0.17 0.17 0.13 0.08 0.06 0.05 0.05 0.04 0.04 0.04 0.03 0.03 0.03 0.03 0.03
0.00 0.00 0.00 0.01 0.01 0.01 0.02 0.03 0.05 0.05 0.05 0.05 0.04 0.03 0.03 0.05 0.07 0.08 0.08 0.07 0.06 0.09 0.15 0.17 0.17 0.14 0.11 0.09 0.09 0.09 0.09 0.07 0.06 0.05 0.05 0.05 0.04 0.04
0.00 0.00 0.00 0.01 0.01 0.01 0.02 0.02 0.02 0.03 0.04 0.03 0.03 0.04 0.05 0.07 0.09 0.09 0.09 0.10 0.11 0.13 0.15 0.16 0.16 0.14 0.14 0.15 0.16 0.14 0.13 0.12 0.10 0.09 0.07 0.07 0.06 0.05
0.00 0.00 0.01 0.01 0.01 0.01 0.01 0.02 0.03 0.03 0.04 0.04 0.04 0.05 0.06 0.07 0.09 0.09 0.08 0.09 0.10 0.11 0.12 0.13 0.14 0.15 0.16 0.15 0.17 0.19 0.18 0.17 0.16 0.14 0.13 0.11 0.09 0.08
0.00 0.00 0.01 0.01 0.01 0.01 0.02 0.02 0.03 0.04 0.04 0.04 0.05 0.06 0.06 0.07 0.07 0.07 0.07 0.07 0.09 0.10 0.11 0.12 0.13 0.16 0.18 0.17 0.17 0.19 0.19 0.20 0.19 0.18 0.16 0.15 0.13 0.11
0.00 0.00 0.00 0.00 0.01 0.01 0.02 0.03 0.05 0.05 0.05 0.06 0.06 0.06 0.06 0.05 0.05 0.06 0.08 0.10 0.09 0.09 0.09 0.12 0.13 0.13 0.15 0.15 0.17 0.18 0.18 0.19 0.19 0.19 0.18 0.17 0.16 0.12
0.00 0.01 0.01 0.01 0.00 0.01 0.01 0.02 0.04 0.03 0.03 0.04 0.07 0.09 0.07 0.06 0.05 0.06 0.09 0.13 0.12 0.11 0.11 0.11 0.12 0.12 0.13 0.13 0.14 0.18 0.19 0.19 0.19 0.19 0.18 0.19 0.18 0.15
0.00 0.00 0.01 0.01 0.01 0.00 0.01 0.02 0.03 0.04 0.04 0.05 0.07 0.08 0.09 0.10 0.08 0.06 0.09 0.11 0.13 0.13 0.14 0.13 0.12 0.13 0.13 0.13 0.13 0.15 0.19 0.20 0.20 0.21 0.21 0.20 0.17 0.15
0.00 0.00 0.00 0.00 0.00 0.00 0.00 0.01 0.03 0.04 0.04 0.06 0.09 0.09 0.10 0.12 0.12 0.09 0.09 0.09 0.11 0.13 0.13 0.13 0.13 0.13 0.13 0.14 0.15 0.17 0.16 0.18 0.19 0.20 0.20 0.20 0.17 0.14
0.00 0.00 0.00 0.00 0.00 0.00 0.01 0.02 0.02 0.02 0.03 0.04 0.06 0.09 0.11 0.10 0.12 0.10 0.10 0.09 0.08 0.10 0.12 0.13 0.14 0.15 0.15 0.15 0.15 0.16 0.16 0.16 0.16 0.17 0.19 0.19 0.16 0.13
0.00 0.00 0.00 0.00 0.00 0.00 0.01 0.01 0.02 0.03 0.03 0.04 0.06 0.08 0.10 0.12 0.12 0.11 0.11 0.12 0.11 0.10 0.11 0.12 0.14 0.18 0.22 0.23 0.19 0.15 0.15 0.15 0.14 0.15 0.15 0.15 0.14 0.12
0.00 0.00 0.00 0.00 0.00 0.00 0.00 0.01 0.01 0.02 0.02 0.03 0.04 0.06 0.09 0.11 0.12 0.12 0.11 0.12 0.12 0.10 0.10 0.11 0.12 0.13 0.16 0.18 0.17 0.14 0.14 0.14 0.14 0.14 0.14 0.11 0.10 0.08
0.00 0.00 0.00 0.00 0.00 0.00 0.01 0.01 0.01 0.01 0.01 0.02 0.02 0.03 0.05 0.08 0.11 0.12 0.14 0.14 0.12 0.11 0.11 0.11 0.12 0.12 0.11 0.13 0.13 0.11 0.11 0.12 0.12 0.12 0.11 0.11 0.10 0.11
0.00 0.00 0.00 0.00 0.00 0.00 0.00 0.01 0.01 0.01 0.01 0.02 0.02 0.02 0.03 0.04 0.05 0.07 0.11 0.15 0.15 0.13 0.12 0.12 0.12 0.13 0.13 0.13 0.13 0.12 0.10 0.10 0.12 0.11 0.10 0.09 0.09 0.08
0.00 0.00 0.00 0.00 0.00 0.00 0.00 0.00 0.01 0.02 0.02 0.02 0.03 0.04 0.04 0.04 0.04 0.05 0.08 0.10 0.11 0.13 0.15 0.16 0.16 0.15 0.13 0.11 0.10 0.10 0.09 0.08 0.09 0.12 0.11 0.08 0.05 0.04
0.00 0.00 0.00 0.00 0.00 0.00 0.01 0.01 0.01 0.01 0.02 0.02 0.03 0.04 0.04 0.04 0.05 0.05 0.06 0.09 0.10 0.10 0.11 0.14 0.16 0.17 0.15 0.12 0.10 0.09 0.09 0.07 0.06 0.05 0.06 0.06 0.05 0.04
MSLP
1012.09 1011.95 1011.84 1011.74 1011.65 1011.54 1011.40 1011.24 1011.04 1010.84 1010.62 1010.42 1010.24 1010.08 1009.97 1009.90 1009.88 1009.93 1010.04 1010.23 1010.51 1010.87 1011.31 1011.81 1012.35 1012.92 1013.49 1014.04 1014.56 1015.04 1015.48 1015.90 1016.30 1016.69 1017.08 1017.47 1017.86 1018.22
1011.84 1011.67 1011.52 1011.38 1011.24 1011.10 1010.94 1010.77 1010.58 1010.38 1010.18 1010.00 1009.83 1009.69 1009.58 1009.50 1009.47 1009.50 1009.59 1009.75 1010.00 1010.34 1010.76 1011.25 1011.80 1012.37 1012.95 1013.51 1014.05 1014.56 1015.03 1015.49 1015.93 1016.36 1016.79 1017.22 1017.64 1018.05
1011.58 1011.38 1011.20 1011.03 1010.86 1010.69 1010.51 1010.32 1010.13 1009.94 1009.76 1009.59 1009.45 1009.33 1009.24 1009.17 1009.15 1009.17 1009.24 1009.39 1009.62 1009.93 1010.32 1010.78 1011.30 1011.85 1012.41 1012.97 1013.51 1014.02 1014.52 1015.00 1015.47 1015.95 1016.43 1016.91 1017.38 1017.84
1011.30 1011.09 1010.89 1010.70 1010.51 1010.32 1010.12 1009.92 1009.72 1009.53 1009.36 1009.22 1009.10 1009.01 1008.94 1008.90 1008.89 1008.92 1009.01 1009.14 1009.35 1009.64 1009.99 1010.41 1010.88 1011.38 1011.90 1012.42 1012.94 1013.45 1013.94 1014.44 1014.94 1015.46 1015.99 1016.53 1017.06 1017.58
1011.01 1010.80 1010.60 1010.40 1010.20 1009.99 1009.77 1009.56 1009.35 1009.16 1008.99 1008.86 1008.76 1008.69 1008.66 1008.66 1008.68 1008.74 1008.83 1008.97 1009.17 1009.42 1009.73 1010.10 1010.51 1010.95 1011.42 1011.89 1012.37 1012.84 1013.33 1013.84 1014.36 1014.91 1015.48 1016.08 1016.67 1017.25
1010.70 1010.49 1010.30 1010.10 1009.89 1009.67 1009.44 1009.21 1008.98 1008.78 1008.61 1008.48 1008.40 1008.36 1008.36 1008.40 1008.46 1008.55 1008.67 1008.82 1009.00 1009.23 1009.50 1009.81 1010.16 1010.54 1010.94 1011.36 1011.79 1012.24 1012.71 1013.21 1013.74 1014.31 1014.92 1015.57 1016.22 1016.86
1010.35 1010.15 1009.97 1009.77 1009.56 1009.33 1009.08 1008.82 1008.58 1008.36 1008.18 1008.05 1007.99 1007.97 1008.01 1008.08 1008.18 1008.30 1008.44 1008.60 1008.78 1008.99 1009.23 1009.49 1009.78 1010.11 1010.45 1010.82 1011.21 1011.63 1012.08 1012.57 1013.11 1013.70 1014.34 1015.01 1015.71 1016.40
1009.97 1009.79 1009.61 1009.42 1009.20 1008.95 1008.68 1008.39 1008.12 1007.88 1007.69 1007.56 1007.50 1007.51 1007.57 1007.67 1007.80 1007.95 1008.11 1008.28 1008.45 1008.64 1008.84 1009.07 1009.32 1009.60 1009.90 1010.24 1010.61 1011.01 1011.46 1011.95 1012.50 1013.10 1013.76 1014.45 1015.17 1015.90
1009.58 1009.41 1009.24 1009.04 1008.81 1008.54 1008.24 1007.93 1007.63 1007.37 1007.16 1007.02 1006.97 1006.98 1007.06 1007.18 1007.33 1007.49 1007.65 1007.81 1007.97 1008.13 1008.30 1008.50 1008.72 1008.97 1009.26 1009.59 1009.96 1010.37 1010.83 1011.34 1011.90 1012.52 1013.19 1013.90 1014.64 1015.39
1009.21 1009.06 1008.89 1008.68 1008.43 1008.14 1007.81 1007.47 1007.14 1006.85 1006.63 1006.48 1006.42 1006.44 1006.52 1006.64 1006.79 1006.93 1007.07 1007.20 1007.32 1007.45 1007.59 1007.75 1007.95 1008.20 1008.50 1008.84 1009.24 1009.69 1010.18 1010.72 1011.32 1011.96 1012.64 1013.37 1014.12 1014.88
1008.89 1008.75 1008.59 1008.37 1008.10 1007.78 1007.42 1007.05 1006.70 1006.39 1006.15 1006.00 1005.93 1005.93 1006.00 1006.10 1006.22 1006.33 1006.42 1006.49 1006.56 1006.62 1006.71 1006.85 1007.03 1007.28 1007.60 1007.98 1008.43 1008.93 1009.48 1010.08 1010.72 1011.40 1012.11 1012.86 1013.63 1014.40
1008.62 1008.51 1008.35 1008.13 1007.84 1007.50 1007.12 1006.72 1006.34 1006.02 1005.77 1005.60 1005.51 1005.50 1005.54 1005.60 1005.67 1005.71 1005.73 1005.73 1005.71 1005.71 1005.74 1005.82 1005.99 1006.24 1006.58 1007.01 1007.51 1008.09 1008.71 1009.38 1010.09 1010.82 1011.57 1012.35 1013.14 1013.93
1008.38 1008.30 1008.16 1007.95 1007.65 1007.29 1006.89 1006.47 1006.08 1005.74 1005.47 1005.29 1005.19 1005.16 1005.16 1005.17 1005.17 1005.13 1005.06 1004.97 1004.85 1004.77 1004.72 1004.76 1004.89 1005.13 1005.49 1005.96 1006.53 1007.17 1007.88 1008.62 1009.40 1010.19 1011.00 1011.82 1012.64 1013.46
1008.15 1008.11 1008.00 1007.79 1007.49 1007.11 1006.70 1006.27 1005.86 1005.52 1005.24 1005.05 1004.93 1004.87 1004.84 1004.80 1004.72 1004.61 1004.45 1004.25 1004.05 1003.87 1003.75 1003.72 1003.82 1004.05 1004.42 1004.92 1005.53 1006.23 1007.00 1007.81 1008.65 1009.51 1010.37 1011.24 1012.10 1012.95
1007.88 1007.89 1007.80 1007.60 1007.30 1006.92 1006.50 1006.06 1005.65 1005.29 1005.02 1004.82 1004.69 1004.60 1004.53 1004.45 1004.32 1004.14 1003.90 1003.63 1003.34 1003.09 1002.90 1002.82 1002.88 1003.08 1003.44 1003.94 1004.58 1005.31 1006.12 1006.98 1007.87 1008.77 1009.68 1010.59 1011.49 1012.37
1007.56 1007.60 1007.53 1007.35 1007.05 1006.67 1006.24 1005.80 1005.38 1005.03 1004.74 1004.54 1004.40 1004.30 1004.21 1004.10 1003.94 1003.71 1003.43 1003.11 1002.78 1002.47 1002.24 1002.12 1002.14 1002.31 1002.65 1003.14 1003.77 1004.51 1005.32 1006.19 1007.10 1008.03 1008.96 1009.89 1010.82 1011.73
1007.21 1007.27 1007.21 1007.03 1006.73 1006.35 1005.91 1005.47 1005.04 1004.68 1004.40 1004.19 1004.04 1003.94 1003.84 1003.72 1003.56 1003.33 1003.04 1002.71 1002.37 1002.05 1001.81 1001.67 1001.67 1001.81 1002.12 1002.58 1003.18 1003.88 1004.67 1005.52 1006.41 1007.32 1008.25 1009.18 1010.11 1011.03
1006.88 1006.93 1006.87 1006.69 1006.39 1005.99 1005.55 1005.09 1004.67 1004.30 1004.00 1003.79 1003.64 1003.53 1003.44 1003.33 1003.18 1002.98 1002.72 1002.43 1002.12 1001.84 1001.61 1001.49 1001.49 1001.62 1001.90 1002.32 1002.86 1003.51 1004.24 1005.02 1005.86 1006.72 1007.61 1008.51 1009.41 1010.31
1006.65 1006.69 1006.61 1006.41 1006.10 1005.69 1005.24 1004.77 1004.33 1003.95 1003.64 1003.41 1003.25 1003.14 1003.06 1002.97 1002.85 1002.68 1002.48 1002.25 1002.01 1001.79 1001.63 1001.54 1001.56 1001.70 1001.96 1002.34 1002.83 1003.40 1004.04 1004.75 1005.49 1006.28 1007.09 1007.92 1008.77 1009.63
1006.62 1006.63 1006.52 1006.30 1005.97 1005.55 1005.08 1004.60 1004.14 1003.73 1003.40 1003.15 1002.97 1002.84 1002.75 1002.67 1002.58 1002.46 1002.32 1002.16 1002.00 1001.86 1001.78 1001.76 1001.82 1001.98 1002.24 1002.59 1003.02 1003.52 1004.08 1004.69 1005.33 1006.02 1006.73 1007.48 1008.25 1009.03
1006.84 1006.80 1006.66 1006.41 1006.06 1005.63 1005.15 1004.65 1004.17 1003.74 1003.37 1003.08 1002.86 1002.70 1002.58 1002.49 1002.40 1002.31 1002.21 1002.12 1002.04 1001.98 1001.97 1002.03 1002.15 1002.35 1002.62 1002.96 1003.35 1003.80 1004.28 1004.80 1005.35 1005.94 1006.55 1007.20 1007.87 1008.57
1007.31 1007.22 1007.04 1006.77 1006.41 1005.96 1005.47 1004.96 1004.46 1004.00 1003.59 1003.25 1002.97 1002.75 1002.58 1002.44 1002.33 1002.22 1002.14 1002.08 1002.04 1002.05 1002.11 1002.23 1002.41 1002.66 1002.96 1003.31 1003.70 1004.12 1004.56 1005.01 1005.49 1005.98 1006.50 1007.06 1007.64 1008.24
1007.93 1007.80 1007.60 1007.30 1006.93 1006.49 1006.00 1005.48 1004.97 1004.48 1004.03 1003.63 1003.28 1002.98 1002.72 1002.51 1002.33 1002.17 1002.06 1001.99 1001.96 1002.00 1002.10 1002.26 1002.50 1002.79 1003.14 1003.52 1003.93 1004.35 1004.78 1005.21 1005.64 1006.08 1006.53 1007.00 1007.50 1008.02
Thickness
5661 5664 5666 5670 5673 5676 5679 5680 5680 5682 5689 5699 5706 5715 5719 5723 5727 5729 5731 5733 5734 5735 5735 5735 5735 5735 5734 5734 5733 5732 5731 5729 5728 5726 5723 5721 5718 5716
5655 5658 5661 5664 5667 5669 5672 5674 5677 5678 5682 5692 5698 5706 5711 5716 5720 5723 5726 5729 5730 5730 5731 5731 5731 5732 5731 5731 5730 5729 5728 5726 5725 5722 5720 5718 5715 5712
5649 5651 5654 5657 5659 5662 5665 5667 5670 5672 5676 5683 5690 5696 5701 5706 5711 5715 5719 5722 5725 5726 5726 5727 5728 5728 5727 5727 5726 5725 5724 5723 5721 5719 5717 5714 5711 5709
5644 5646 5648 5651 5652 5655 5657 5660 5663 5666 5670 5674 5680 5685 5691 5697 5702 5706 5710 5715 5718 5720 5722 5722 5723 5723 5723 5723 5722 5721 5721 5719 5718 5716 5713 5711 5708 5705
5640 5641 5642 5644 5645 5648 5651 5653 5656 5660 5664 5667 5671 5677 5682 5688 5692 5697 5702 5707 5711 5714 5715 5716 5717 5718 5718 5718 5718 5717 5717 5716 5714 5712 5709 5707 5704 5701
5637 5637 5638 5639 5640 5642 5644 5647 5650 5653 5656 5660 5664 5668 5673 5679 5683 5687 5691 5697 5701 5706 5708 5710 5711 5712 5713 5713 5713 5713 5712 5711 5710 5708 5706 5703 5700 5698
5635 5635 5636 5637 5639 5639 5640 5642 5644 5646 5649 5653 5656 5660 5665 5669 5674 5680 5683 5688 5692 5697 5700 5703 5704 5705 5706 5707 5708 5708 5708 5707 5705 5703 5701 5699 5696 5693
5633 5634 5634 5635 5636 5637 5638 5640 5641 5642 5644 5647 5651 5654 5659 5663 5667 5671 5674 5678 5682 5690 5691 5694 5697 5698 5701 5702 5704 5703 5702 5702 5701 5699 5697 5694 5692 5689
5632 5632 5633 5635 5634 5633 5634 5636 5637 5640 5643 5645 5647 5651 5655 5659 5661 5664 5668 5671 5676 5681 5682 5685 5689 5692 5695 5697 5698 5698 5698 5697 5696 5694 5692 5690 5687 5685
5633 5632 5631 5631 5631 5631 5630 5631 5633 5636 5639 5643 5645 5649 5652 5654 5657 5660 5662 5664 5668 5672 5675 5676 5680 5684 5687 5689 5691 5692 5692 5692 5691 5689 5687 5685 5682 5680
5634 5633 5631 5630 5630 5630 5628 5629 5630 5633 5637 5640 5643 5646 5648 5651 5652 5653 5655 5656 5659 5663 5667 5669 5672 5674 5677 5680 5683 5685 5686 5686 5685 5684 5682 5680 5677 5673
5633 5632 5631 5630 5629 5629 5627 5627 5627 5630 5633 5636 5639 5642 5645 5647 5649 5650 5651 5652 5654 5656 5661 5662 5664 5664 5666 5671 5675 5677 5677 5678 5678 5678 5676 5674 5671 5667
5632 5631 5630 5630 5629 5628 5628 5627 5627 5629 5631 5633 5635 5638 5641 5643 5644 5646 5648 5650 5651 5653 5656 5656 5657 5657 5659 5662 5665 5668 5670 5671 5670 5670 5669 5668 5665 5662
5633 5631 5630 5630 5629 5629 5629 5629 5629 5629 5629 5631 5633 5635 5637 5639 5641 5642 5644 5646 5648 5651 5652 5652 5652 5653 5653 5654 5656 5659 5661 5662 5663 5662 5661 5659 5657 5655
5635 5633 5631 5630 5629 5629 5629 5629 5629 5628 5628 5629 5630 5632 5634 5636 5637 5638 5639 5641 5642 5644 5646 5647 5648 5649 5650 5651 5650 5651 5652 5653 5654 5654 5653 5652 5650 5647
5634 5632 5631 5630 5628 5628 5629 5628 5628 5627 5627 5628 5628 5629 5631 5632 5632 5633 5634 5635 5636 5637 5639 5640 5642 5643 5643 5645 5645 5645 5646 5647 5647 5646 5645 5643 5641 5640
5632 5629 5627 5626 5626 5626 5627 5627 5627 5626 5626 5626 5626 5627 5627 5628 5628 5628 5629 5630 5631 5633 5633 5634 5635 5636 5638 5639 5638 5640 5640 5640 5641 5639 5637 5635 5634 5633
5628 5625 5624 5623 5622 5623 5623 5624 5625 5625 5625 5625 5624 5624 5624 5624 5624 5624 5624 5625 5626 5628 5629 5629 5628 5628 5629 5630 5634 5635 5634 5634 5633 5632 5632 5630 5628 5626
5623 5621 5620 5619 5620 5620 5621 5621 5622 5623 5623 5622 5622 5622 5622 5621 5621 5621 5621 5621 5622 5623 5624 5624 5624 5625 5625 5626 5628 5630 5630 5629 5626 5625 5625 5625 5625 5623
5617 5615 5615 5616 5616 5617 5618 5618 5619 5620 5619 5619 5619 5619 5619 5618 5618 5618 5618 5618 5619 5618 5618 5619 5620 5622 5623 5624 5622 5623 5624 5624 5622 5620 5618 5617 5616 5615
5609 5609 5609 5610 5611 5612 5613 5614 5615 5615 5616 5616 5616 5616 5616 5615 5615 5615 5615 5615 5615 5615 5615 5616 5618 5618 5617 5616 5614 5614 5615 5617 5619 5617 5614 5610 5607 5606
5600 5600 5600 5600 5602 5603 5605 5607 5608 5609 5610 5610 5611 5611 5612 5612 5612 5612 5612 5612 5612 5612 5613 5612 5611 5611 5610 5611 5610 5609 5608 5608 5608 5609 5610 5611 5608 5605
5588 5588 5588 5589 5590 5591 5593 5595 5597 5598 5599 5600 5603 5605 5607 5607 5608 5609 5609 5609 5609 5608 5608 5607 5606 5606 5606 5606 5605 5604 5603 5602 5601 5600 5601 5602 5604 5606